Wetbulb
64.33 63.45 59.93 59.10 51.94 52.35 49.78 51.50 54.84 55.46 56.50 58.91 58.63 59.51 62.51 65.09 62.62 60.67 73.56 74.82 75.12 75.76 77.18 76.92 77.17 77.45 77.53 77.45 77.34 77.24 77.14 77.27 77.12 76.89 76.52 76.49 76.44 76.66 76.81 76.63 76.61 76.75 75.62 74.63 74.04 73.80 74.03 74.11 74.32
63.69 58.58 58.70 55.95 49.23 46.70 49.83 52.55 53.10 55.62 57.35 57.64 58.35 62.59 64.45 64.40 70.03 70.67 72.05 75.22 75.76 76.35 77.10 76.36 77.19 77.32 77.35 77.25 76.91 76.81 76.96 76.98 76.73 76.71 76.61 76.51 76.66 76.56 76.61 76.61 76.42 75.61 74.67 73.91 73.64 73.89 73.80 74.00 74.36
58.74 56.60 54.90 51.56 48.53 45.76 48.30 52.64 54.61 54.26 55.69 56.08 56.37 62.36 65.80 66.33 70.82 72.05 74.60 75.59 75.80 75.82 76.60 76.71 76.97 77.04 77.20 76.67 76.48 76.33 76.33 76.48 76.56 76.61 76.59 76.46 76.43 76.50 76.38 76.33 76.14 75.28 74.20 73.49 73.87 74.33 74.88 74.63 74.28
56.03 56.30 53.83 47.76 45.89 48.37 50.52 53.29 52.84 54.15 56.51 56.71 57.32 58.52 67.91 72.36 71.49 73.58 75.67 75.71 75.15 75.61 76.21 76.69 76.68 76.68 76.81 76.62 76.39 76.25 76.15 76.23 76.23 76.44 76.38 76.25 76.33 76.19 76.01 76.25 76.09 75.41 73.99 73.51 74.24 75.10 74.74 74.55 74.13
55.20 54.11 48.03 46.00 46.58 48.55 51.44 52.65 53.49 53.12 54.58 56.14 61.64 60.70 65.80 72.47 74.87 75.51 75.29 75.25 74.63 75.33 76.28 76.49 76.43 76.48 76.61 76.69 76.36 76.06 75.88 75.85 75.98 76.21 76.20 76.23 76.14 76.01 75.98 75.97 75.81 75.26 74.51 74.13 74.51 74.66 74.72 74.59 74.22
50.95 51.91 44.74 42.95 45.86 48.19 51.08 53.69 53.09 52.34 54.45 57.93 63.32 63.91 66.08 73.72 74.10 74.79 75.43 75.02 75.13 75.02 76.05 76.11 76.29 76.25 76.18 76.23 76.06 75.60 75.52 75.62 75.63 75.83 75.90 76.00 75.86 75.63 75.69 75.65 75.33 75.07 74.66 74.40 74.51 74.42 74.29 74.14 73.84
48.36 47.01 43.30 44.38 45.02 47.22 49.93 53.94 52.50 52.76 53.48 58.82 62.42 62.47 65.59 71.52 74.11 75.24 75.29 75.15 75.12 75.44 75.79 75.65 75.24 75.76 76.07 75.95 75.60 75.35 75.24 75.19 74.99 74.93 75.21 75.31 75.39 75.26 75.16 75.17 75.10 74.81 74.47 74.04 74.02 74.09 73.91 73.66 73.57
50.25 48.67 43.08 44.12 43.56 44.66 50.80 52.36 54.11 54.12 53.58 59.90 59.49 57.41 60.03 70.86 74.51 74.94 74.74 74.51 74.64 75.21 75.34 75.24 75.00 74.59 74.46 75.27 75.72 75.39 75.22 75.14 74.83 74.76 74.83 74.83 75.04 75.14 74.96 74.14 74.59 74.65 74.11 73.69 73.37 73.22 72.95 72.73 72.75
49.28 43.52 40.94 42.44 43.64 45.88 51.06 50.05 53.57 56.08 56.70 58.38 58.41 56.03 59.60 72.14 73.79 73.52 73.12 73.17 73.66 74.01 74.94 75.45 75.16 74.94 74.31 73.96 74.95 75.44 75.26 75.44 74.85 74.99 74.98 74.22 73.74 74.47 74.91 74.22 74.51 74.67 74.30 73.69 73.24 72.65 71.96 71.52 71.51
47.74 42.74 42.43 46.23 47.63 47.17 49.53 50.38 52.11 52.26 53.60 55.31 56.72 58.33 70.02 72.18 72.50 71.33 71.13 71.31 72.05 72.64 73.61 74.71 74.83 74.60 74.21 73.64 74.79 74.93 74.73 74.85 74.73 74.64 74.91 74.20 74.48 74.64 73.96 74.38 74.04 74.24 74.25 73.93 73.60 73.19 72.43 71.30 68.46
44.69 42.79 45.49 46.57 48.99 49.99 48.66 49.46 51.51 51.23 51.01 54.38 55.72 55.45 60.78 70.23 71.37 70.76 71.00 71.08 71.82 72.99 73.69 74.36 75.01 75.36 74.26 73.19 74.10 74.50 74.67 74.92 75.02 75.21 75.25 75.07 74.41 74.22 73.70 73.42 73.63 73.95 73.66 73.05 72.98 72.93 72.02 71.21 70.53
42.37 44.85 46.56 47.06 48.84 49.16 48.19 50.26 49.32 51.03 52.66 56.08 57.19 57.46 57.61 59.76 68.46 71.09 70.87 71.36 71.70 72.42 73.50 74.40 75.13 75.01 74.85 73.52 73.50 73.85 73.82 74.37 74.19 74.50 75.15 74.66 73.86 73.95 73.69 73.37 73.32 73.97 73.32 73.13 73.20 71.93 72.31 72.00 71.14
43.41 44.46 45.47 47.48 48.11 48.15 48.77 47.25 47.71 49.20 52.93 55.67 56.48 58.61 57.57 57.90 57.63 63.85 71.29 72.79 72.90 72.08 73.08 73.95 74.96 75.10 74.88 74.37 73.72 73.80 73.44 73.87 74.26 74.60 74.96 74.85 73.80 73.63 73.75 73.58 73.68 73.44 73.40 73.22 72.92 72.49 72.24 71.81 71.38
44.93 44.79 44.89 45.92 46.27 47.29 46.35 46.67 47.62 48.56 51.63 52.06 54.40 55.97 57.55 58.86 59.13 59.44 60.59 70.52 72.40 72.99 73.03 73.98 74.47 75.32 75.12 74.50 74.58 74.23 74.49 74.48 74.71 74.11 74.74 74.95 73.99 73.24 73.80 73.60 73.34 73.28 73.29 73.21 72.76 72.15 72.02 71.80 71.82
46.19 43.38 46.22 45.36 45.28 44.70 46.75 43.56 44.59 48.98 50.77 51.13 54.73 57.23 58.65 59.94 60.55 60.79 61.47 59.07 68.74 72.16 73.72 74.15 74.09 75.44 74.93 74.72 74.82 74.89 74.69 74.86 74.84 74.77 75.77 75.49 74.76 73.27 73.39 73.62 73.52 73.58 73.91 73.84 73.62 73.07 72.95 72.27 72.10
43.98 42.76 41.40 47.33 45.29 45.17 45.05 39.37 46.14 50.06 50.21 49.97 51.61 53.47 56.49 59.70 60.22 61.18 60.67 60.08 60.58 61.32 68.56 74.12 73.75 74.03 74.56 74.66 74.46 74.61 75.01 74.99 74.96 75.13 75.24 75.32 74.98 74.32 73.17 73.66 73.61 74.46 74.31 73.69 72.92 72.75 72.07 72.02 71.84
41.97 40.10 40.20 43.10 46.07 45.24 44.06 41.96 47.32 50.31 49.93 50.03 52.33 54.68 55.98 58.87 61.13 63.81 62.65 60.58 62.93 63.99 66.87 71.32 73.52 72.58 73.24 73.73 74.34 74.22 74.94 74.57 74.86 75.02 75.06 75.29 75.10 75.14 73.87 74.13 74.53 75.07 74.12 73.83 73.17 72.99 72.15 71.37 71.69
39.59 38.93 40.85 41.19 44.85 44.43 43.29 43.58 47.29 49.47 49.60 50.40 52.89 53.12 54.29 57.22 59.60 62.48 62.16 61.05 63.50 66.37 70.09 71.69 72.00 71.99 71.92 72.60 73.42 73.65 73.85 73.99 74.56 74.78 74.98 75.51 75.57 75.10 74.34 73.96 73.54 74.14 73.16 72.76 72.42 72.25 72.83 72.04 71.72
43.00 42.04 41.52 44.73 46.88 43.79 43.53 43.86 46.10 48.90 50.32 50.83 52.22 52.54 55.05 57.71 61.17 62.57 58.62 60.94 63.62 66.56 69.04 70.35 69.53 70.07 69.40 69.43 70.23 71.32 71.65 73.10 74.19 74.60 74.44 74.22 74.01 74.13 74.24 73.73 73.75 73.53 72.03 72.25 72.36 71.44 70.52 70.36 71.08
42.57 41.17 41.65 44.85 45.77 44.27 44.11 43.58 46.94 47.83 49.07 51.93 51.04 53.02 54.69 57.13 58.49 57.68 57.32 60.46 62.80 64.40 65.69 66.29 66.81 68.30 69.96 68.98 68.41 68.41 67.31 67.34 69.32 69.87 71.51 72.35 71.83 71.80 71.67 70.88 69.10 69.67 67.84 69.40 69.34 69.40 67.45 67.40 68.73
42.44 41.43 42.01 41.88 45.03 45.46 43.40 42.65 44.57 47.48 48.16 49.48 50.72 53.49 54.27 55.80 55.22 56.06 57.07 59.36 60.08 62.50 63.81 64.71 65.03 66.27 67.27 66.10 64.26 64.15 64.48 64.74 64.71 64.48 65.22 67.52 68.05 68.30 69.03 68.92 68.38 68.43 68.42 65.14 67.77 67.91 67.80 64.47 66.32
40.56 45.22 44.28 43.49 42.09 39.64 44.07 38.54 43.67 45.52 46.53 47.65 50.20 51.39 52.48 53.59 55.73 56.04 57.44 58.71 59.83 61.15 62.13 62.67 63.79 64.69 64.54 65.28 65.60 66.58 63.14 61.32 62.37 64.02 65.08 65.73 66.20 66.20 66.52 67.55 67.49 67.86 66.00 66.95 66.32 66.46 67.28 67.10 64.12
43.29 45.94 45.02 44.47 42.71 41.56 41.70 40.28 43.35 45.45 44.75 47.75 50.14 51.34 53.20 55.11 55.61 55.89 57.70 58.55 60.30 59.65 60.59 62.02 62.58 61.16 61.55 62.20 62.91 62.51 62.95 61.99 61.73 62.41 63.32 64.48 64.25 64.12 64.16 65.25 66.14 66.53 66.21 67.11 66.91 66.96 67.07 65.53 64.51
46.44 44.33 43.40 42.93 42.32 36.94 40.27 40.41 41.53 44.33 45.83 48.37 49.92 50.86 52.31 54.39 56.35 57.84 58.98 59.22 58.78 58.07 58.74 58.45 59.26 58.61 59.13 60.17 60.69 60.83 60.69 60.13 59.91 60.47 59.66 60.15 60.43 61.39 62.69 63.39 64.25 65.41 65.22 65.25 65.25 66.74 66.85 66.07 65.58
45.19 43.01 37.11 35.47 35.62 35.37 40.62 39.74 43.20 45.76 47.92 48.82 50.68 51.14 53.30 55.47 56.33 56.77 57.06 57.25 57.94 56.25 56.16 55.47 56.46 55.46 56.43 57.03 56.73 56.75 56.89 56.88 56.75 56.84 56.54 56.76 56.93 58.04 60.48 61.54 62.34 62.93 64.36 64.62 64.79 65.17 65.68 65.77 64.42
42.88 43.59 37.99 30.72 32.45 36.11 40.62 37.95 43.03 47.86 49.32 50.14 51.51 52.71 53.96 54.21 54.62 55.09 55.12 55.46 55.07 54.54 55.37 55.54 54.79 53.73 54.64 54.58 54.54 55.17 55.25 54.40 54.39 55.06 54.69 54.51 54.90 55.70 58.11 58.26 59.24 60.12 60.91 62.76 64.00 63.51 63.35 64.82 64.28
42.19 40.00 43.77 38.90 37.85 37.36 39.91 41.99 47.04 47.82 47.68 49.32 50.14 51.70 51.96 52.29 52.34 52.13 52.32 53.45 53.38 53.39 53.20 53.23 53.35 53.46 53.56 53.40 53.86 54.08 54.08 53.95 53.74 54.37 54.65 53.93 54.92 54.88 55.48 56.05 56.08 56.69 57.22 58.33 59.55 59.54 61.39 62.66 63.57
45.38 46.14 39.95 41.19 32.46 30.97 36.53 38.02 41.07 45.07 46.09 48.41 49.07 49.84 50.26 50.09 50.77 51.33 51.91 52.07 52.27 52.34 52.60 53.14 53.00 52.06 52.11 52.29 52.82 52.55 52.96 53.15 53.01 52.97 52.58 52.87 53.41 53.76 53.28 53.69 54.29 54.50 54.58 55.49 56.60 57.23 59.16 59.40 61.09
42.81 42.33 41.74 42.74 40.48 34.81 33.06 37.47 46.44 47.30 48.52 48.60 49.33 49.81 50.04 50.36 50.67 50.85 51.04 51.34 51.42 51.70 51.90 51.96 51.70 51.43 51.26 51.44 51.88 51.77 51.75 51.92 51.93 51.53 51.77 51.99 52.13 52.07 52.06 52.28 52.18 52.32 52.58 53.79 54.27 55.16 55.72 56.79 58.62
45.23 42.98 43.59 38.99 36.81 39.23 39.16 38.53 46.65 47.81 49.15 49.64 48.43 48.05 48.74 49.58 49.50 49.82 50.19 50.16 50.51 50.53 50.82 50.99 50.74 50.30 50.21 50.66 50.74 50.64 50.67 50.58 50.29 50.43 50.84 51.24 50.84 51.43 51.15 51.30 51.17 51.28 51.39 51.59 51.48 51.43 52.32 53.76 56.08
MSLP
1012.30 1011.95 1011.77 1011.24 1011.16 1010.52 1009.31 1008.71 1008.31 1007.42 1006.74 1006.38 1006.28 1005.78 1005.46 1005.46 1005.35 1006.09 1006.96 1007.36 1007.76 1008.25 1008.93 1009.64 1010.22 1010.61 1010.99 1011.23 1011.28 1011.49 1011.83 1012.17 1012.45 1012.73 1013.04 1013.19 1013.44 1013.88 1014.25 1014.44 1014.79 1015.06 1015.32 1015.57 1015.72 1015.84 1015.94 1016.08 1016.19
1012.03 1011.76 1011.55 1011.20 1010.61 1009.64 1008.80 1008.60 1007.88 1007.57 1007.13 1006.40 1005.71 1005.41 1005.43 1005.17 1005.94 1006.58 1006.98 1007.71 1007.93 1008.63 1009.21 1009.88 1010.53 1010.80 1011.16 1011.44 1011.67 1011.76 1011.99 1012.31 1012.60 1012.88 1013.16 1013.37 1013.72 1014.03 1014.34 1014.65 1015.02 1015.30 1015.54 1015.75 1015.90 1015.99 1016.12 1016.27 1016.32
1011.95 1011.78 1011.20 1010.84 1010.21 1009.04 1008.47 1008.19 1007.76 1007.64 1007.13 1006.44 1005.77 1005.35 1005.33 1005.56 1006.16 1006.56 1006.94 1007.68 1008.09 1008.71 1009.40 1010.01 1010.73 1011.01 1011.42 1011.71 1011.88 1011.99 1012.13 1012.42 1012.75 1013.01 1013.17 1013.56 1014.04 1014.24 1014.54 1014.81 1015.10 1015.39 1015.65 1015.86 1016.00 1016.11 1016.28 1016.38 1016.47
1011.55 1011.61 1012.03 1010.88 1009.52 1009.38 1008.64 1008.19 1008.19 1007.44 1006.64 1006.36 1006.03 1005.39 1005.73 1006.38 1006.34 1006.68 1007.33 1007.91 1008.30 1008.87 1009.34 1010.25 1010.69 1011.05 1011.45 1011.72 1012.16 1012.24 1012.43 1012.63 1012.88 1013.12 1013.42 1013.74 1014.12 1014.47 1014.77 1015.01 1015.27 1015.52 1015.74 1015.95 1016.11 1016.27 1016.46 1016.59 1016.71
1011.77 1011.37 1010.84 1010.29 1009.42 1009.27 1008.96 1008.56 1008.06 1007.58 1006.84 1006.30 1006.27 1005.49 1005.77 1006.63 1006.98 1007.32 1007.74 1008.05 1008.13 1008.74 1009.28 1010.01 1010.61 1011.01 1011.42 1011.61 1011.99 1012.33 1012.53 1012.83 1013.10 1013.36 1013.59 1013.92 1014.26 1014.53 1014.85 1015.18 1015.42 1015.64 1015.85 1016.02 1016.20 1016.39 1016.56 1016.71 1016.82
1011.40 1011.25 1010.36 1009.46 1009.16 1009.41 1009.12 1008.46 1008.12 1007.70 1006.86 1006.38 1006.09 1005.94 1006.19 1006.99 1007.21 1007.57 1007.96 1008.17 1008.47 1008.90 1009.26 1009.89 1010.72 1011.01 1011.40 1011.64 1011.89 1012.24 1012.60 1012.88 1013.21 1013.49 1013.76 1013.99 1014.36 1014.66 1014.96 1015.22 1015.47 1015.71 1015.94 1016.10 1016.28 1016.44 1016.60 1016.77 1016.88
1010.90 1010.75 1009.75 1009.56 1009.35 1009.19 1009.01 1008.62 1008.02 1007.36 1006.74 1006.35 1006.27 1005.84 1006.18 1007.03 1007.37 1007.86 1008.18 1008.44 1008.73 1009.07 1009.54 1009.91 1010.48 1011.09 1011.50 1011.90 1012.13 1012.32 1012.64 1012.85 1013.11 1013.45 1013.83 1014.13 1014.47 1014.74 1015.04 1015.29 1015.47 1015.68 1015.92 1016.16 1016.33 1016.47 1016.61 1016.76 1016.85
1011.51 1010.95 1010.13 1009.94 1009.42 1008.69 1008.65 1008.39 1007.95 1007.51 1006.74 1006.52 1006.18 1005.96 1006.05 1006.90 1007.80 1008.12 1008.49 1008.68 1009.04 1009.04 1009.45 1009.91 1010.43 1010.86 1011.31 1011.82 1012.26 1012.41 1012.74 1013.02 1013.33 1013.64 1013.97 1014.33 1014.71 1015.03 1015.21 1015.37 1015.57 1015.77 1015.97 1016.13 1016.29 1016.48 1016.63 1016.72 1016.81
1012.10 1011.11 1009.89 1009.81 1009.65 1008.79 1008.92 1008.56 1007.98 1007.78 1007.19 1006.86 1006.71 1006.10 1006.31 1007.16 1007.86 1008.23 1008.46 1008.78 1008.99 1009.38 1009.50 1009.87 1010.40 1010.79 1011.26 1011.58 1012.26 1012.85 1013.13 1013.35 1013.66 1013.95 1014.25 1014.57 1014.55 1014.88 1015.15 1015.33 1015.62 1015.89 1016.05 1016.19 1016.33 1016.46 1016.58 1016.68 1016.74
1011.48 1010.79 1010.24 1010.11 1009.60 1009.07 1008.85 1008.58 1008.20 1007.89 1007.18 1006.86 1006.81 1006.33 1006.54 1007.22 1007.61 1007.80 1007.99 1008.28 1008.60 1008.98 1009.61 1009.80 1010.30 1010.68 1011.14 1011.65 1012.09 1012.64 1013.00 1013.27 1013.60 1013.95 1014.25 1014.38 1014.66 1014.86 1014.99 1015.25 1015.75 1015.90 1016.03 1016.11 1016.20 1016.34 1016.49 1016.61 1016.10
1011.61 1010.64 1010.54 1010.18 1009.75 1009.37 1008.67 1008.64 1008.73 1008.05 1007.03 1006.76 1006.79 1006.14 1006.43 1006.87 1007.54 1007.55 1007.62 1007.82 1008.24 1008.81 1009.22 1009.88 1010.46 1010.72 1011.05 1011.35 1011.97 1012.34 1012.76 1013.02 1013.39 1013.74 1014.06 1014.26 1014.53 1014.80 1014.95 1015.03 1015.23 1015.44 1015.74 1015.62 1015.74 1015.80 1015.81 1015.86 1016.09
1011.37 1010.92 1010.43 1010.14 1009.96 1009.61 1009.09 1008.94 1008.33 1007.78 1007.06 1006.75 1007.12 1006.70 1006.46 1006.59 1007.19 1007.28 1007.44 1007.84 1008.32 1008.72 1008.98 1009.53 1010.17 1010.70 1011.11 1011.21 1011.58 1011.94 1012.35 1012.83 1013.07 1013.44 1013.91 1014.14 1014.28 1014.53 1014.70 1014.74 1014.94 1015.18 1015.04 1015.12 1015.27 1015.17 1015.47 1015.53 1015.56
1011.06 1010.35 1010.41 1009.96 1009.70 1009.47 1009.30 1008.66 1008.12 1007.53 1007.48 1006.88 1006.90 1006.90 1006.54 1006.57 1007.21 1007.49 1007.89 1007.77 1007.95 1008.31 1008.66 1009.12 1009.81 1010.34 1010.81 1011.26 1011.43 1011.74 1012.01 1012.55 1012.83 1013.30 1013.66 1013.87 1014.00 1014.37 1014.50 1014.67 1014.84 1014.97 1014.97 1014.93 1015.00 1015.07 1015.06 1015.27 1015.19
1010.14 1009.82 1009.54 1009.47 1009.23 1009.13 1008.95 1008.01 1008.01 1007.82 1007.78 1006.86 1006.54 1006.41 1006.41 1006.26 1006.46 1006.68 1007.45 1007.78 1007.76 1007.91 1008.08 1008.82 1009.43 1009.98 1010.55 1011.01 1011.43 1011.69 1011.85 1012.09 1012.48 1012.89 1013.14 1013.63 1013.93 1014.27 1014.14 1014.42 1014.44 1014.51 1014.65 1014.82 1014.72 1014.93 1015.01 1014.97 1014.84
1009.91 1009.71 1009.14 1008.68 1008.48 1008.53 1008.56 1007.70 1007.02 1007.71 1007.41 1006.80 1006.12 1005.74 1005.82 1005.73 1005.77 1006.19 1006.59 1007.30 1007.93 1007.90 1008.18 1008.66 1009.39 1010.00 1010.48 1010.79 1011.22 1011.46 1011.62 1011.89 1012.08 1012.51 1012.94 1013.12 1013.55 1013.97 1014.16 1014.10 1014.15 1013.99 1014.30 1014.47 1014.44 1014.49 1014.49 1014.65 1014.51
1009.61 1009.65 1008.41 1006.81 1007.46 1007.29 1007.98 1006.76 1006.52 1006.74 1006.53 1006.11 1006.02 1005.55 1005.36 1005.29 1005.77 1006.07 1006.60 1006.98 1007.59 1007.96 1008.41 1008.77 1008.94 1009.60 1010.40 1010.65 1011.00 1011.29 1011.45 1011.63 1011.88 1012.11 1012.45 1012.80 1013.08 1013.45 1013.66 1013.65 1013.55 1013.54 1013.86 1013.80 1013.87 1013.96 1014.03 1013.97 1013.84
1009.31 1008.31 1007.82 1007.02 1006.55 1006.57 1006.93 1005.98 1005.43 1005.50 1005.56 1005.36 1005.42 1005.22 1005.42 1005.07 1004.56 1004.90 1006.30 1006.92 1007.53 1007.91 1008.38 1008.52 1008.78 1009.44 1010.01 1010.56 1010.86 1011.10 1011.23 1011.50 1011.80 1012.15 1012.22 1012.43 1012.69 1012.96 1013.41 1013.29 1013.12 1013.39 1013.39 1013.50 1013.65 1013.67 1013.91 1013.63 1013.31
1008.24 1008.28 1007.47 1006.59 1006.08 1006.25 1005.93 1004.95 1004.31 1004.09 1004.49 1004.52 1004.54 1004.82 1004.93 1004.76 1005.06 1005.06 1006.32 1006.97 1007.49 1007.83 1008.16 1008.50 1008.77 1009.37 1009.86 1010.45 1010.96 1011.16 1011.33 1011.48 1011.51 1011.72 1011.92 1012.16 1012.35 1012.56 1012.86 1012.82 1013.04 1013.10 1013.11 1013.06 1013.12 1013.33 1013.22 1013.27 1012.89
1008.21 1007.90 1007.03 1005.81 1005.72 1005.67 1004.75 1003.94 1003.65 1003.94 1004.21 1003.99 1003.90 1004.51 1004.62 1004.45 1004.08 1004.42 1006.18 1006.97 1007.71 1007.88 1008.29 1008.77 1008.78 1009.28 1009.61 1010.27 1010.73 1010.93 1011.06 1011.24 1011.61 1011.71 1011.77 1011.83 1011.95 1012.24 1012.46 1012.50 1012.55 1012.76 1012.96 1012.80 1012.87 1012.96 1012.89 1012.71 1012.57
1007.94 1007.46 1006.22 1005.60 1005.03 1005.27 1004.41 1003.50 1003.02 1003.81 1003.68 1003.28 1003.55 1003.92 1003.93 1003.98 1004.76 1005.46 1006.09 1007.10 1007.52 1008.14 1008.66 1008.88 1009.20 1009.52 1009.83 1010.37 1010.61 1010.84 1010.90 1011.58 1011.60 1011.73 1011.66 1011.64 1011.66 1011.93 1012.06 1012.16 1012.21 1012.38 1012.36 1012.49 1012.46 1012.53 1012.37 1012.22 1012.38
1007.03 1006.57 1005.79 1005.44 1004.91 1004.53 1004.39 1003.72 1003.35 1003.13 1003.55 1003.40 1003.83 1003.68 1004.07 1003.89 1004.73 1005.61 1005.92 1006.87 1007.64 1008.34 1008.63 1008.79 1009.33 1009.79 1009.94 1010.44 1010.91 1011.33 1011.50 1011.70 1011.91 1011.82 1011.84 1011.92 1011.94 1011.98 1011.97 1011.94 1012.01 1012.14 1012.20 1011.88 1012.01 1011.98 1011.91 1011.61 1011.53
1005.71 1005.73 1005.51 1005.13 1005.01 1003.85 1004.43 1003.10 1003.13 1003.40 1003.13 1003.11 1003.52 1003.75 1003.88 1004.32 1005.01 1005.76 1006.27 1007.37 1007.80 1008.74 1008.76 1009.09 1009.40 1009.67 1010.01 1010.48 1010.56 1010.64 1010.72 1010.96 1011.21 1011.29 1011.48 1011.55 1011.64 1011.71 1011.58 1011.52 1011.64 1011.70 1011.57 1011.55 1011.42 1011.39 1011.45 1011.36 1010.86
1004.98 1004.93 1004.75 1004.76 1004.51 1004.48 1004.02 1003.32 1003.13 1003.52 1003.39 1003.68 1003.44 1004.02 1004.48 1004.93 1005.46 1006.16 1006.54 1007.51 1008.27 1008.72 1009.19 1009.51 1009.94 1010.33 1010.76 1011.00 1010.94 1010.87 1011.11 1011.32 1011.48 1011.67 1011.88 1011.98 1012.06 1011.84 1011.71 1011.59 1011.61 1011.54 1011.34 1011.12 1011.10 1011.05 1011.06 1010.80 1010.50
1004.85 1004.93 1004.95 1005.01 1004.70 1004.35 1004.03 1003.63 1003.01 1003.20 1003.33 1003.62 1004.40 1004.69 1005.28 1005.65 1005.93 1006.71 1007.30 1007.77 1008.35 1009.09 1009.70 1009.83 1010.31 1010.56 1010.99 1011.08 1011.45 1011.85 1012.20 1012.43 1012.40 1012.52 1012.53 1012.31 1012.22 1012.02 1011.72 1011.44 1011.40 1011.26 1011.11 1011.00 1010.74 1010.55 1010.35 1010.18 1009.88
1004.58 1004.50 1004.13 1004.43 1004.39 1003.98 1004.47 1003.91 1003.14 1003.75 1004.06 1004.24 1004.24 1004.92 1005.52 1005.86 1005.98 1006.70 1007.54 1008.28 1008.92 1009.46 1010.15 1010.45 1011.00 1011.35 1011.80 1012.13 1012.43 1012.62 1012.87 1013.05 1012.74 1012.71 1012.58 1012.55 1012.08 1011.75 1011.45 1011.41 1011.06 1010.78 1010.65 1010.47 1010.39 1010.12 1009.82 1009.46 1009.11
1003.77 1003.80 1003.45 1003.67 1004.10 1004.15 1004.83 1003.75 1003.41 1004.14 1004.41 1004.56 1004.83 1005.46 1006.05 1006.70 1007.28 1007.85 1008.53 1009.12 1009.73 1010.46 1010.98 1011.41 1011.86 1012.17 1012.52 1012.54 1012.84 1013.04 1013.17 1012.98 1012.82 1012.91 1012.79 1012.33 1011.90 1011.55 1011.51 1011.37 1011.00 1010.70 1010.39 1010.15 1009.89 1009.50 1009.16 1008.89 1008.49
1003.75 1003.97 1004.30 1004.28 1005.06 1004.61 1004.29 1004.28 1003.91 1004.23 1004.53 1004.88 1005.46 1006.01 1006.74 1007.39 1007.98 1008.77 1009.54 1010.20 1010.81 1011.39 1011.97 1012.26 1012.51 1012.75 1012.77 1012.93 1012.93 1013.00 1013.09 1013.27 1013.01 1012.88 1012.66 1012.09 1011.77 1011.38 1011.19 1010.95 1010.76 1010.55 1010.30 1009.96 1009.64 1009.02 1008.51 1008.23 1007.85
1003.21 1003.83 1004.43 1004.48 1004.66 1004.52 1004.45 1004.30 1003.45 1004.10 1004.80 1005.26 1005.74 1006.33 1007.16 1008.00 1008.74 1009.55 1010.26 1010.90 1011.42 1011.93 1012.38 1012.69 1012.93 1013.06 1013.23 1013.35 1013.15 1012.96 1013.00 1012.92 1012.74 1012.28 1011.95 1011.78 1011.49 1011.35 1011.09 1010.75 1010.46 1010.21 1009.89 1009.54 1009.17 1008.42 1007.80 1007.45 1006.89
1003.90 1003.74 1004.51 1004.88 1005.25 1004.80 1004.48 1004.23 1004.28 1004.27 1004.77 1005.38 1006.25 1007.07 1007.78 1008.50 1009.21 1010.01 1010.70 1011.36 1011.77 1012.18 1012.44 1012.70 1012.81 1012.78 1012.83 1012.74 1012.82 1012.74 1012.58 1012.38 1012.14 1012.13 1011.74 1011.46 1011.35 1011.02 1010.60 1010.25 1009.97 1009.70 1009.40 1009.08 1008.64 1008.08 1007.51 1006.81 1006.17
1004.00 1004.06 1004.23 1004.61 1005.47 1005.62 1005.28 1004.77 1005.05 1005.00 1005.37 1006.00 1006.76 1007.64 1008.53 1009.26 1010.02 1010.54 1010.90 1011.43 1011.76 1012.05 1012.26 1012.40 1012.58 1012.62 1012.59 1012.57 1012.43 1012.26 1012.20 1012.02 1011.77 1011.52 1011.35 1011.09 1010.70 1010.38 1010.11 1009.84 1009.58 1009.22 1008.85 1008.54 1008.18 1007.58 1006.94 1006.08 1005.20
Wind_Speed
8 6 2 1 4 2 4 4 3 6 3 3 12 8 8 4 5 2 2 7 13 19 17 18 15 13 12 13 15 17 17 17 18 18 18 18 18 16 14 13 11 10 10 10 10 10 11 11 12
3 2 1 1 5 7 6 3 8 5 10 18 9 3 6 3 1 4 11 8 17 17 16 16 15 14 12 13 14 16 17 17 17 17 17 17 16 15 13 12 11 10 10 10 10 10 10 11 11
2 1 3 3 4 12 6 6 3 6 12 10 6 4 4 3 1 6 2 14 19 18 15 16 16 16 14 13 12 15 17 17 17 17 17 16 14 13 12 12 11 11 10 10 11 10 9 9 9
4 3 3 6 13 8 8 3 2 10 8 4 7 11 2 4 1 3 15 16 18 17 16 17 16 16 16 16 13 13 14 16 16 16 16 15 15 13 12 11 10 10 10 10 10 8 7 7 7
2 2 6 7 17 6 8 8 7 9 12 15 8 3 0 3 5 10 14 15 19 18 16 17 16 16 17 18 17 15 15 15 15 15 16 15 14 13 12 11 10 9 8 9 9 8 6 6 6
4 1 7 17 18 5 7 11 9 10 15 13 6 4 1 1 6 10 12 15 16 16 16 16 15 16 16 17 18 17 16 16 15 15 15 15 14 13 12 11 10 8 8 8 8 7 7 6 6
5 5 15 15 12 16 12 9 10 10 12 7 2 4 2 1 3 9 10 13 14 15 14 14 15 14 14 15 15 16 16 16 16 15 14 14 14 13 12 11 10 9 8 7 7 6 6 7 7
2 4 8 9 11 14 4 3 1 7 11 6 3 1 3 3 7 10 10 12 13 14 14 13 12 13 13 13 13 15 15 14 13 13 13 12 11 10 10 9 8 8 7 7 6 6 6 7 7
2 7 10 12 13 9 6 7 2 5 5 6 4 2 3 8 12 10 11 12 11 11 13 13 13 12 12 12 11 10 11 10 10 10 9 9 9 10 10 8 6 7 6 6 6 6 7 7 8
7 6 10 5 11 8 15 15 11 7 10 4 4 8 6 8 10 12 12 13 14 15 14 13 13 13 12 9 10 10 9 8 8 8 9 7 6 7 7 6 8 7 7 7 6 6 6 7 7
5 7 5 5 10 12 17 8 4 12 17 9 7 4 6 6 8 9 10 13 14 13 12 13 12 11 13 11 8 6 6 6 7 9 8 7 6 6 7 5 6 7 7 6 7 7 6 6 6
6 8 11 5 9 7 14 11 14 15 18 15 7 8 3 5 10 11 11 10 9 12 13 13 13 12 11 8 8 8 7 7 6 7 9 6 5 6 6 5 6 6 6 7 7 6 7 9 9
10 11 8 13 14 15 14 16 18 18 18 20 13 8 1 5 4 5 12 10 11 13 13 15 14 13 11 11 8 8 8 7 7 7 8 7 7 6 6 6 6 6 6 6 7 7 7 9 9
7 13 14 11 15 10 17 22 18 13 14 24 19 19 7 3 3 2 5 14 13 13 14 14 15 14 12 11 11 8 8 8 8 6 7 10 7 6 7 7 7 7 7 7 6 7 7 8 9
3 8 10 13 15 13 13 20 21 13 18 21 13 16 14 8 4 8 9 7 11 13 10 12 11 11 13 13 11 8 7 8 7 7 10 10 10 9 8 7 8 8 7 8 8 9 8 9 9
3 2 7 5 13 12 15 17 19 13 19 19 19 15 7 13 9 5 8 9 3 6 9 8 10 12 13 11 9 7 7 7 7 6 7 10 10 11 9 8 8 7 7 7 7 8 8 9 9
3 6 7 11 13 6 15 15 21 21 17 17 14 14 11 14 19 15 9 5 4 2 6 9 11 12 13 11 9 8 8 6 5 6 6 8 9 10 7 7 7 7 7 8 8 8 7 9 9
5 5 6 10 1 16 15 20 18 17 20 16 13 15 14 17 22 19 9 7 4 5 6 9 9 10 10 7 6 5 4 4 5 5 6 8 7 8 7 6 6 6 7 7 8 9 9 9 11
8 11 14 16 8 9 20 22 20 15 16 17 16 18 19 22 23 21 6 5 6 4 6 7 8 8 8 8 7 5 5 3 4 4 6 6 5 6 7 6 6 6 7 8 8 9 10 9 9
15 16 18 15 4 9 7 19 18 9 12 15 16 20 15 17 13 14 6 8 7 8 8 7 7 8 8 6 3 2 4 3 3 2 3 4 5 5 6 6 5 5 5 7 8 8 8 9 7
16 14 14 12 7 4 3 6 8 7 12 10 10 18 15 15 15 13 10 9 7 9 9 10 9 10 9 10 7 5 4 4 3 3 4 5 5 5 6 7 6 6 6 6 7 8 9 9 9
15 14 17 14 6 7 3 3 3 3 9 12 11 11 18 14 11 9 11 10 10 8 11 11 10 11 9 7 7 6 4 4 3 3 2 3 4 6 6 6 6 7 6 7 8 7 8 8 10
8 7 15 8 7 4 4 4 4 2 6 8 11 10 9 9 9 9 9 11 12 10 8 8 9 9 8 6 7 5 5 5 5 5 7 6 6 6 7 7 8 9 8 9 10 10 10 8 10
5 4 4 3 3 8 1 4 3 4 3 2 3 5 8 11 14 13 12 12 12 9 9 9 9 10 10 10 10 8 6 5 4 4 5 6 7 7 9 9 9 10 10 11 11 11 12 11 10
9 7 6 7 7 7 1 5 1 3 1 4 6 7 10 12 15 14 13 10 9 9 9 9 9 11 10 10 9 8 6 4 4 5 4 7 7 8 9 9 9 9 11 11 12 12 13 13 12
9 11 6 11 8 6 3 6 4 1 5 6 6 10 12 11 11 11 9 8 8 9 9 9 8 8 7 7 6 5 5 4 4 5 7 7 8 9 10 12 12 12 12 13 13 12 12 13 13
6 7 1 6 2 4 2 2 5 2 5 8 12 12 11 9 9 8 8 9 10 10 10 8 7 6 6 6 5 5 6 7 8 9 9 9 10 10 12 13 14 14 14 14 14 12 14 14 14
4 10 5 2 6 7 4 3 5 5 9 13 14 13 10 8 8 9 10 10 8 8 7 7 6 6 5 5 5 6 8 8 9 9 11 12 12 13 13 14 14 14 15 15 15 14 14 15 14
6 5 4 5 0 4 6 4 1 4 12 15 12 9 9 9 10 10 10 8 7 6 6 5 6 7 8 8 9 9 9 10 10 11 11 11 11 12 12 13 13 14 14 14 15 16 18 19 17
2 3 5 6 6 1 1 3 6 5 12 12 9 8 8 10 9 8 7 6 5 5 6 7 7 8 9 9 10 10 11 11 11 11 11 11 12 11 12 13 13 14 14 14 16 18 18 20 19
Wind_Direction
288 297 282 267 233 258 232 225 293 251 260 4 312 272 296 292 248 330 51 146 146 148 150 154 152 151 145 139 132 130 131 133 135 135 137 136 136 140 143 139 137 138 139 141 147 145 142 140 139
277 185 94 100 238 221 229 224 242 297 319 315 301 298 242 284 310 114 131 148 148 144 148 154 150 149 150 143 137 133 132 133 133 134 136 135 139 143 142 137 141 146 150 156 157 154 153 148 148
234 350 218 219 214 224 232 199 265 333 319 304 294 304 298 331 359 167 151 152 148 145 149 151 153 150 153 148 141 138 136 137 139 139 138 138 143 142 141 143 148 155 160 165 165 165 162 163 165
170 148 117 234 224 227 232 159 5 334 331 329 302 289 153 24 313 159 143 151 149 147 154 147 152 152 152 150 150 142 139 140 142 143 142 145 146 144 145 148 152 162 166 170 172 169 175 178 176
63 158 212 228 240 240 233 278 323 321 306 307 306 287 88 60 72 132 148 158 155 154 158 157 154 154 157 156 156 152 148 148 148 148 149 151 150 148 148 151 159 168 171 176 179 180 188 190 189
142 223 209 227 229 227 237 269 291 293 294 317 272 289 46 78 133 154 157 161 159 156 159 158 159 160 162 163 161 158 157 156 156 156 157 155 154 153 154 157 163 170 176 183 188 193 202 211 217
199 195 228 241 245 245 242 260 258 287 289 287 285 292 22 210 152 158 158 158 159 159 161 166 170 169 167 169 167 164 163 162 161 160 161 160 160 160 162 167 172 177 182 190 197 206 217 229 236
167 225 219 226 231 248 217 218 298 263 273 333 267 19 0 104 147 148 154 161 164 161 165 171 175 176 180 179 176 170 170 166 164 164 163 162 163 167 172 176 185 187 191 198 208 222 236 247 253
155 224 233 229 217 227 216 242 216 319 262 289 295 114 323 149 144 153 153 161 165 173 172 177 178 180 186 186 182 179 176 168 164 164 160 158 185 186 184 196 173 202 207 215 228 237 249 263 269
208 225 222 222 230 246 247 248 264 306 308 294 236 92 104 155 173 175 177 174 184 186 189 184 183 183 180 183 183 188 184 186 185 188 182 192 194 200 212 210 211 220 221 227 233 246 261 260 267
161 241 202 228 237 236 253 247 261 257 267 277 280 126 104 165 206 207 204 194 198 198 191 192 185 186 187 185 183 181 185 181 187 193 192 193 196 202 208 217 215 224 212 241 226 237 241 253 267
217 221 222 233 231 244 257 272 252 244 256 275 302 312 82 133 245 231 214 211 203 203 205 193 194 191 196 192 189 184 189 189 195 196 198 201 208 210 225 228 227 226 222 235 234 237 244 236 239
222 241 224 236 243 248 265 264 256 260 266 275 289 261 238 119 159 229 268 231 211 214 207 206 196 196 194 197 193 192 192 192 196 197 204 211 218 225 230 237 243 253 252 244 254 259 257 268 262
201 242 253 244 236 236 244 255 248 250 272 268 269 260 205 243 297 57 201 250 232 224 213 206 201 198 195 201 198 195 193 190 198 202 216 213 221 229 234 237 237 239 243 252 257 269 273 273 275
313 289 278 243 240 245 223 250 253 263 255 260 267 257 217 221 285 302 303 235 248 240 218 210 206 200 203 202 199 198 195 202 206 206 219 216 215 226 236 236 240 245 248 252 254 262 267 268 271
270 252 274 287 208 229 194 252 260 250 251 246 253 270 298 243 246 309 273 272 232 246 243 211 194 193 202 200 193 198 199 210 221 219 219 221 224 226 228 235 241 248 250 251 253 252 264 269 272
200 261 243 289 212 205 188 238 245 243 236 234 227 235 258 275 263 281 271 217 237 166 198 205 186 187 188 187 184 191 198 207 210 225 229 233 230 233 229 240 253 249 254 251 260 261 262 269 271
188 227 245 259 210 221 210 237 237 229 202 207 224 230 244 247 247 254 186 160 180 179 171 179 172 176 169 161 168 181 197 202 208 221 224 223 224 228 230 248 256 256 260 264 265 261 265 260 278
267 285 278 271 260 208 222 228 237 250 201 206 223 221 210 220 219 240 143 141 156 153 170 177 155 156 149 157 161 164 177 179 208 222 227 228 231 231 230 240 247 243 250 260 268 267 264 269 269
244 263 267 284 261 214 224 230 235 215 237 220 210 218 217 218 204 227 193 170 189 156 152 140 142 151 164 163 145 138 125 121 117 118 136 174 186 194 207 221 234 243 260 265 270 270 274 269 263
235 241 258 266 318 192 204 237 235 231 230 242 223 220 221 220 210 223 201 179 150 158 142 132 132 140 138 129 120 101 104 106 157 176 188 197 202 212 221 225 237 239 244 260 256 259 264 271 273
250 225 245 263 263 234 263 257 183 278 221 193 186 199 210 216 218 207 181 172 136 143 130 129 136 128 124 136 149 154 148 158 172 186 189 212 244 259 256 258 251 251 262 266 268 265 265 270 276
249 240 216 230 223 279 185 237 113 222 203 204 173 187 188 177 182 182 162 130 130 128 118 97 90 76 76 77 59 49 38 19 8 352 333 310 292 287 281 278 277 266 255 249 251 253 253 257 262
143 145 102 121 167 233 152 263 142 155 164 134 183 157 167 160 141 137 131 129 115 101 98 91 84 64 55 55 51 51 37 357 332 325 305 304 307 301 288 287 273 267 270 269 267 258 251 253 258
194 195 191 206 205 244 127 206 61 160 223 266 239 156 143 138 130 131 128 119 108 79 72 75 69 66 62 65 65 65 57 30 357 336 313 303 295 293 297 304 293 283 277 274 272 272 270 262 259
190 208 221 216 210 209 173 205 149 309 285 249 164 143 129 122 118 120 116 111 104 93 93 97 94 86 71 65 53 33 14 341 315 293 292 285 284 284 293 287 285 283 284 278 272 266 263 266 262
162 206 132 111 80 225 168 218 243 92 66 125 128 132 133 119 103 97 94 98 105 106 99 97 92 78 53 33 10 344 327 307 299 292 286 285 289 287 287 292 288 285 283 279 277 268 264 261 261
222 137 164 165 203 233 188 244 240 177 145 150 151 147 139 113 103 101 105 103 97 91 86 73 60 42 9 338 325 314 308 301 296 295 295 293 291 288 289 287 287 288 287 282 277 272 265 263 259
151 165 77 106 99 238 243 212 191 220 172 160 154 147 147 144 135 126 120 110 97 85 64 44 8 349 337 332 324 314 310 309 303 293 292 289 289 287 285 287 289 288 287 284 280 276 272 267 264
101 148 180 224 193 152 326 215 6 199 165 160 150 136 125 124 123 119 112 92 65 42 16 353 342 331 329 323 316 311 307 306 301 298 292 289 289 291 290 289 287 284 286 287 284 280 277 269 264